• Join FlightAware (Why Join?)
  • Login
  • US Flag GB Flag 
06:46 EDT


 

Airport Tracker/Info


-or-


 

Live Flight TrackerFlight Track Log ✈ AWE3899 ✈ 28-Apr-2013 ✈ KOAJ - KCLT

Flight Track Log - Related Links

Times and Time Zones

All times are in EDT time to prevent confusion due to time zone crossing. See the AWE3899 flight status page for this flight to view local times or setup timezone preferences in your user account.

Time Position Orientation Groundspeed Altitude Reporting Facility
EDT Latitude Longitude Course Direction KTS MPH feet Rate Location/Type
19:57 34.8614 -77.6475 231° Southwest 177 204 3,900  Level Washington Center
19:58 34.6720 -77.8280 219° Southwest  Level FlightAware Approximate
19:58 34.8144 -77.7069 226° Southwest 155 178 6,100  Level Washington Center
19:59 34.6199 -77.9003 230° Southwest  Level FlightAware Approximate
19:59 34.7653 -77.7764 229° Southwest 221 254 8,800  Level Washington Center
20:00 34.5685 -77.9736 230° Southwest  Level FlightAware Approximate
20:00 34.7161 -77.8433 228° Southwest 253 291 10,900  Level Washington Center
20:01 34.5182 -78.0478 231° Southwest  Level FlightAware Approximate
20:01 34.6606 -77.9150 227° Southwest 278 320 13,200  Level Washington Center
20:02 34.4669 -78.1247 231° Southwest  Level FlightAware Approximate
20:02 34.6025 -77.9917 227° Southwest 299 344 15,400  Level Washington Center
20:03 34.5447 -78.0681 227° Southwest 309 356 16,000 120 Climbing Washington Center
20:05 34.4281 -78.2281 229° Southwest 329 379 15,900 -60 Descending Jacksonville Center
20:06 34.3664 -78.3069 227° Southwest 329 379 15,900  Level Jacksonville Center
20:07 34.3197 -78.3975 238° Southwest 329 379 15,900  Level Jacksonville Center
20:08 34.3108 -78.5061 264° West 316 364 15,900  Level Jacksonville Center
20:09 34.3042 -78.6169 266° West 326 375 15,900  Level Jacksonville Center
20:10 34.2975 -78.7278 266° West 332 382 15,900  Level Jacksonville Center
20:11 34.2886 -78.8364 264° West 332 382 15,900  Level Jacksonville Center
20:12 34.2817 -78.9422 265° West 332 382 15,900  Level Jacksonville Center
20:13 34.2725 -79.0506 264° West 332 382 15,900  Level Jacksonville Center
20:14 34.2653 -79.1614 266° West 332 382 15,900  Level Jacksonville Center
20:15 34.2914 -79.2658 287° West 320 368 15,900  Level Jacksonville Center
20:16 34.3297 -79.3675 295° West 320 368 15,900  Level Jacksonville Center
20:17 34.3675 -79.4539 298° West 325 374 15,900  Level Jacksonville Center
20:18 34.4058 -79.5581 294° West 330 380 15,900  Level Jacksonville Center
20:19 34.4436 -79.6522 296° West 330 380 15,900 -420 Level Jacksonville Center
20:20 34.4794 -79.7442 295° West 306 352 15,100 -900 Descending Jacksonville Center
20:21 34.5150 -79.8361 295° West 300 345 14,200 -900 Descending Jacksonville Center
20:22 34.5419 -79.9183 292° West 295 339 13,400 -900 Descending Jacksonville Center
20:23 34.5753 -80.0028 296° West 285 328 12,500 -780 Descending Jacksonville Center
20:25 34.6775 -80.1944 303° West 296 341 10,900 -540 Descending Atlanta Center
20:26 34.7194 -80.2683 305° West 294 338 10,900 -240 Level Atlanta Center
20:27 34.7744 -80.3644 305° West 296 341 10,500 -720 Descending Atlanta Center
20:28 34.8167 -80.4486 301° West 288 331 9,500 -1,020 Descending Atlanta Center
20:29 34.8606 -80.5228 306° West 276 318 8,500 -1,200 Descending Atlanta Center
20:30 34.8983 -80.6122 297° West 248 285 7,000 -1,200 Descending Atlanta Center
20:31 34.8789 -80.6586 243° Southwest 215 247 6,300 -600 Descending Atlanta Center
20:32 34.8497 -80.7333 245° Southwest 185 213 5,900 -480 Descending Atlanta Center
20:33 34.8342 -80.7769 247° West 183 211 5,400 -900 Descending Atlanta Center
20:34 34.8150 -80.8483 252° West 180 207 4,100 -720 Descending Atlanta Center
20:35 34.8456 -80.8928 310° West 205 236 3,900 -60 Descending Atlanta Center
20:36 34.8917 -80.9089 344° North 161 185 4,000  Climbing Atlanta Center
20:37 34.9400 -80.9147 354° North 170 196 3,900 -60 Descending Atlanta Center
20:38 34.9922 -80.9178 357° North 171 197 3,900  Level Atlanta Center
20:39 35.0383 -80.9236 354° North 171 197 3,900 -540 Level Atlanta Center
20:40 35.0864 -80.9269 357° North 174 200 2,900 -900 Descending Atlanta Center
20:41 35.1322 -80.9303 357° North 162 186 2,100 -840 Descending Atlanta Center